SCP
0 1 1 1 1 1 1 0 0 0 0 0 0 1 1 1 2 2 2 4 5 4 3 3 3 2 1 1 1 1 0 0 0 0 0 0 0 0 0 0 0 0 0 0 0 0 0 0 0
0 1 1 1 1 1 1 0 0 0 0 0 0 1 1 2 2 2 3 4 5 4 3 3 3 2 2 1 1 1 0 0 0 0 0 0 0 0 0 0 0 0 0 0 0 0 0 0 0
0 1 1 1 1 1 0 0 0 0 0 0 1 2 2 2 2 2 4 5 6 5 3 3 3 3 2 2 1 1 1 0 0 0 0 0 0 0 0 0 0 0 0 0 0 0 0 0 0
1 1 1 1 0 0 0 0 0 0 0 1 2 3 3 2 2 3 4 6 6 5 4 3 3 3 3 3 2 1 1 1 0 0 0 0 0 0 0 0 0 0 0 0 0 0 0 0 0
1 1 1 0 0 0 0 0 0 1 1 1 3 4 4 2 2 2 3 5 6 6 4 2 2 2 3 3 2 1 1 1 1 1 0 0 0 0 0 0 0 0 0 0 0 0 0 0 0
0 0 0 0 0 0 0 0 0 1 1 2 4 5 4 2 2 2 3 4 6 6 4 2 2 2 3 3 2 2 1 1 1 1 1 1 1 0 0 0 0 0 0 0 0 0 0 0 0
0 0 0 0 0 0 0 0 0 1 1 2 4 5 4 3 3 3 3 4 6 6 4 3 2 2 2 2 2 2 1 1 1 1 1 1 1 1 0 0 0 0 0 0 0 0 0 0 0
0 0 0 0 0 0 0 0 0 1 1 2 4 5 4 4 3 3 3 4 6 6 5 3 2 2 2 2 2 2 1 1 1 1 1 1 1 1 0 0 0 0 0 0 0 0 0 0 0
0 0 0 0 0 0 0 0 1 1 2 3 4 6 6 5 5 5 5 5 7 7 6 4 3 2 2 1 2 2 1 1 1 1 1 1 1 1 0 1 1 0 0 0 0 0 0 0 0
0 0 0 0 0 0 0 0 1 1 2 4 6 7 7 7 8 8 7 7 8 8 7 5 4 3 2 2 2 2 1 1 1 1 1 1 1 1 1 1 1 1 0 1 1 0 0 0 0
0 0 0 0 0 0 0 0 1 2 3 4 7 8 8 8 9 9 9 8 9 9 8 7 5 4 4 3 2 1 1 1 1 2 2 1 1 1 1 1 1 1 1 0 1 1 0 0 1
0 0 0 0 0 0 0 1 1 2 3 5 6 7 7 7 7 8 7 7 8 9 8 7 6 5 4 3 2 1 1 1 1 2 2 2 2 1 1 1 1 1 1 1 1 1 1 1 1
0 0 0 0 0 0 0 1 2 2 3 5 6 6 5 5 5 6 6 7 8 8 8 7 7 5 5 4 3 2 2 1 1 2 2 2 2 2 2 1 1 1 1 1 1 1 1 1 1
0 0 0 0 0 0 1 2 2 3 3 5 5 4 4 4 5 6 7 7 8 8 8 8 8 7 6 5 4 3 2 2 2 2 2 2 2 2 2 1 1 1 1 1 1 1 0 0 0
0 0 0 0 0 0 1 2 3 3 4 4 4 3 4 4 5 6 7 8 8 8 9 10 10 9 8 6 5 4 3 3 2 2 2 2 2 2 2 2 1 1 1 1 1 0 0 0 0
0 0 0 0 0 0 1 2 3 4 4 4 3 3 5 5 6 6 7 9 10 11 12 13 12 10 8 7 5 5 4 3 3 3 2 2 2 2 2 1 1 1 1 1 1 0 0 0 0
0 0 0 0 0 0 1 1 3 3 4 4 5 6 7 7 7 7 8 10 12 13 14 15 13 10 8 7 6 5 5 4 3 2 2 1 1 1 1 1 1 1 1 1 1 1 1 1 0
0 0 0 0 0 0 1 1 2 3 3 4 7 8 8 8 7 7 7 9 12 13 12 11 11 9 8 7 6 5 5 4 3 2 2 2 1 1 1 1 1 1 1 1 1 1 1 1 1
0 0 0 0 0 1 1 2 2 3 3 4 7 9 8 7 6 5 5 7 10 10 8 7 7 7 7 7 6 5 4 4 3 3 3 2 1 1 1 1 1 1 1 1 2 1 1 1 1
0 0 0 0 1 1 1 2 2 3 3 4 6 8 6 5 5 4 3 5 7 8 6 5 5 6 6 6 7 6 4 4 4 4 3 2 1 1 1 1 1 1 1 2 2 2 1 1 1
0 0 0 0 0 1 1 1 2 3 3 3 5 6 5 4 4 3 3 4 5 6 5 4 4 5 5 6 7 5 4 4 4 4 3 2 1 1 1 1 1 1 1 2 2 2 2 1 1
0 0 0 0 0 0 0 1 2 3 3 4 5 5 4 3 3 2 2 3 3 4 4 4 4 4 5 6 6 4 4 3 3 3 3 2 1 1 1 1 1 1 1 2 2 2 2 1 1
0 0 0 0 0 0 0 1 1 2 4 5 5 4 3 3 3 2 2 2 2 3 4 4 4 4 4 5 4 3 3 3 3 3 2 2 1 1 1 1 1 1 1 1 1 1 1 1 1
0 0 0 0 0 0 0 0 1 2 4 6 5 4 3 3 3 2 2 2 2 3 3 3 3 3 4 4 3 3 3 3 2 2 2 2 1 1 1 1 1 1 1 1 1 1 1 1 0
0 0 0 1 1 1 0 0 1 2 4 6 5 3 2 2 3 2 2 2 2 3 3 3 2 3 3 3 3 3 2 2 2 2 1 1 1 1 1 1 1 1 0 0 0 0 0 0 0
0 0 0 0 0 0 1 1 1 1 3 4 4 3 2 2 2 2 2 2 2 2 2 2 2 2 2 3 3 3 2 2 1 1 1 1 1 1 1 1 1 1 0 0 0 0 0 0 0
0 0 0 0 0 0 1 1 1 1 2 3 3 2 2 2 2 2 2 2 2 2 2 2 2 2 2 2 2 2 2 2 1 1 1 1 1 1 1 1 1 1 1 1 1 0 0 0 0
0 0 0 0 0 0 0 1 1 1 2 2 2 2 2 2 2 2 2 2 2 2 2 2 2 2 2 2 2 2 2 2 1 1 1 1 1 1 1 1 1 1 1 1 1 1 0 0 0
0 0 0 1 0 0 0 1 1 1 1 1 1 2 2 2 3 3 3 2 2 2 2 2 2 2 2 2 1 1 2 2 1 1 1 1 2 2 1 1 1 1 1 1 1 1 1 1 1
0 0 0 1 1 0 0 0 1 1 1 1 1 2 2 3 3 3 3 2 2 2 2 2 2 2 2 2 2 2 2 2 2 1 1 2 2 2 1 1 1 1 1 1 1 1 1 1 1
Wind_Speed
10 13 11 8 6 5 8 5 5 8 8 8 8 7 13 12 9 10 10 17 23 22 19 18 17 16 15 15 14 14 14 13 13 13 12 12 12 12 12 12 12 12 12 12 12 12 12 12 11
11 14 11 7 7 6 6 1 4 8 7 6 5 7 12 11 11 13 13 19 23 21 18 17 18 16 15 15 14 14 14 13 13 12 12 12 12 11 12 11 12 12 12 12 12 12 12 11 10
13 17 9 8 11 9 3 2 5 6 5 3 3 6 10 9 10 11 15 20 21 19 18 18 19 17 16 15 14 14 14 14 13 12 12 12 11 11 11 11 11 11 11 12 12 11 11 10 9
10 9 7 9 13 9 3 5 4 3 3 2 3 8 10 7 8 14 17 19 20 19 19 18 19 18 16 15 15 14 14 13 13 12 12 11 11 11 11 11 11 11 11 11 11 11 10 9 8
11 8 10 12 14 8 3 4 4 2 1 2 4 11 10 7 12 15 16 18 18 19 19 18 19 18 16 16 15 14 14 13 12 12 12 11 11 11 11 10 10 10 10 10 10 10 9 8 6
9 9 11 12 9 5 2 3 2 1 1 2 6 9 9 9 12 14 15 16 18 19 19 17 18 18 16 15 15 14 13 13 12 12 12 11 11 10 10 10 9 10 10 9 9 8 8 6 5
10 11 14 14 8 3 2 3 2 3 2 4 4 8 10 10 11 13 13 13 17 19 19 16 15 15 16 15 14 14 13 13 12 11 11 11 11 10 10 10 9 9 9 8 7 7 6 5 3
11 10 15 13 8 2 3 1 1 1 2 3 3 6 10 11 12 13 13 12 14 17 17 16 15 13 12 12 14 14 13 13 12 11 11 10 10 10 10 10 9 8 8 7 6 5 4 3 1
12 10 13 11 6 4 3 2 1 1 1 3 5 10 15 15 14 13 12 12 12 15 14 15 15 13 12 12 13 12 12 11 11 10 10 9 6 7 7 9 10 8 7 6 5 4 3 3 4
10 10 12 7 8 7 5 4 3 1 3 4 7 12 15 14 13 13 12 13 13 14 14 12 14 13 12 11 10 8 8 8 7 6 7 5 3 4 7 10 10 8 7 6 5 4 4 5 3
11 12 10 7 6 7 7 5 3 4 3 4 8 10 13 13 12 11 10 9 10 11 12 12 11 8 9 8 8 5 4 5 5 6 5 3 3 4 4 4 5 4 5 3 4 3 2 1 1
11 10 9 7 6 6 7 6 3 3 4 7 10 12 10 12 11 10 9 8 10 9 11 11 11 7 7 7 6 5 5 4 4 4 5 4 3 3 3 2 2 2 1 1 1 0 1 2 2
11 10 10 8 6 6 6 5 3 2 7 9 9 9 10 9 9 9 9 8 9 9 8 10 9 8 7 5 4 5 4 5 5 4 3 5 3 3 4 2 2 2 1 1 0 1 1 1 2
11 10 9 7 7 6 6 5 3 2 5 8 8 7 8 8 8 8 9 9 10 10 10 10 10 9 7 5 3 3 4 4 4 4 3 4 4 3 4 3 2 2 2 2 1 1 0 0 0
12 12 9 9 9 8 6 5 2 5 6 5 7 7 7 7 7 8 9 9 11 11 11 10 10 9 8 6 5 4 4 5 4 4 4 4 4 4 3 3 2 2 2 2 1 1 1 1 1
14 12 9 10 12 8 8 4 4 7 6 5 6 7 8 7 7 7 8 9 9 10 11 10 10 10 8 6 4 3 3 4 4 4 4 4 4 4 3 3 3 2 2 2 2 1 0 0 1
13 12 12 10 10 7 7 3 6 8 6 6 6 6 7 7 7 7 8 9 9 10 11 10 9 10 8 7 4 4 3 4 4 4 4 4 4 4 3 3 3 2 2 1 1 2 1 1 1
11 11 9 5 4 7 6 2 5 6 5 5 7 8 7 6 7 8 8 8 8 9 10 9 10 10 8 6 4 3 4 4 4 4 4 5 3 4 3 3 2 1 2 2 2 1 0 1 1
12 13 11 8 4 5 6 4 4 6 5 5 6 9 8 7 8 9 9 10 9 9 10 9 9 9 7 5 5 5 4 4 4 4 5 5 4 3 2 4 2 1 3 2 2 1 1 1 0
12 12 11 8 5 6 7 6 4 6 6 6 6 8 10 10 10 10 10 10 9 9 9 9 8 8 7 5 4 4 4 4 4 4 5 5 4 4 4 4 2 2 2 2 2 1 1 2 1
12 11 11 10 9 8 9 7 5 6 6 7 7 8 10 12 13 12 11 10 11 11 10 10 9 9 8 7 5 4 4 4 4 5 4 4 4 3 2 3 2 2 2 3 1 0 1 2 2
11 10 11 12 11 7 8 5 4 6 8 9 9 9 10 12 13 12 12 11 11 11 11 9 9 9 8 7 7 7 6 5 6 5 4 4 4 4 3 3 3 1 1 2 1 2 1 1 1
11 11 12 11 9 9 9 8 4 7 8 10 11 12 12 12 14 13 13 12 12 12 12 11 10 9 8 6 7 6 5 5 5 6 6 5 4 3 3 4 3 2 1 3 2 2 1 1 2
11 11 11 5 5 6 10 9 3 6 9 11 12 13 13 13 14 13 13 12 11 12 12 12 11 9 7 6 6 5 4 6 7 7 6 5 4 4 4 4 3 2 2 3 3 1 1 1 2
10 9 6 4 1 7 11 8 2 5 9 11 14 14 15 14 14 14 14 14 13 13 12 12 12 10 8 7 6 5 5 6 7 6 6 4 5 4 4 5 3 3 3 3 2 1 1 1 1
10 10 8 8 7 5 5 3 2 3 7 10 12 12 14 15 15 14 15 14 14 14 13 13 12 11 10 8 7 6 6 4 5 5 4 4 3 5 6 5 4 3 3 3 3 1 2 2 1
12 10 9 10 12 8 1 2 2 4 7 11 13 14 14 15 16 16 16 15 15 14 14 14 13 11 10 9 7 6 6 5 5 5 4 3 3 6 7 6 5 4 3 2 3 2 1 2 2
13 11 7 6 7 7 1 3 3 5 6 10 13 15 15 15 16 16 15 15 14 14 13 14 13 12 10 9 8 8 7 5 5 5 4 4 4 5 6 5 5 4 4 3 3 2 3 3 2
11 12 8 7 7 8 3 1 3 6 6 8 12 14 15 15 16 15 15 15 14 14 14 13 13 12 10 10 8 8 8 7 6 5 5 4 4 5 5 5 5 5 4 4 3 3 3 3 3
11 11 9 8 8 9 7 1 3 4 4 7 9 13 14 14 14 15 15 15 14 14 14 13 13 13 12 10 9 8 8 8 7 7 6 6 5 5 5 6 5 6 6 5 5 5 4 4 4
Wind_Direction
234 243 238 248 243 246 276 288 356 50 57 54 43 51 63 46 64 103 137 132 122 124 130 132 131 132 132 131 130 128 126 122 119 115 112 108 105 102 98 96 94 91 90 90 90 88 86 84 85
255 254 245 247 254 258 273 288 40 53 62 74 78 73 82 70 77 112 129 123 122 126 134 133 133 132 132 130 130 130 128 126 122 119 116 112 107 103 100 98 96 93 92 92 91 89 87 85 85
260 263 266 252 255 263 270 34 55 68 73 57 71 70 70 83 96 115 126 126 125 130 130 131 135 133 133 132 131 129 128 127 125 122 120 115 110 106 103 101 99 97 95 95 93 90 88 85 84
255 247 243 261 274 284 350 37 38 59 77 89 96 86 76 65 101 122 133 132 130 131 130 134 136 135 134 133 133 131 131 130 128 126 123 118 114 111 107 104 102 100 98 97 95 93 89 86 83
245 257 251 261 273 291 10 28 17 26 58 92 93 101 92 82 107 128 139 135 134 132 130 137 136 135 136 136 135 134 134 133 131 128 125 122 118 114 111 109 107 104 102 99 97 94 91 85 78
254 255 263 270 271 285 52 50 344 332 74 70 89 103 102 121 127 139 143 140 136 133 132 136 138 138 139 138 138 137 136 134 132 129 127 125 121 117 115 113 111 108 105 102 100 97 93 85 72
260 277 281 285 288 309 41 30 341 7 7 54 85 102 121 130 135 141 140 142 135 133 133 140 141 141 141 141 141 140 139 136 135 133 132 131 129 126 123 119 116 114 112 110 107 105 104 96 78
258 279 288 286 289 327 77 15 8 321 74 53 56 101 133 140 143 141 144 137 131 133 139 145 145 145 147 145 145 144 142 140 140 141 140 140 141 140 138 132 125 123 122 120 118 119 126 130 154
255 266 275 290 317 8 55 337 10 172 119 77 63 92 132 142 143 146 147 137 137 138 143 147 146 152 153 151 146 148 147 147 147 151 153 157 163 157 158 135 136 134 134 134 137 148 167 193 216
242 254 271 315 343 345 349 336 319 267 100 91 90 104 128 141 145 153 157 152 148 144 146 149 149 158 159 150 144 156 158 156 167 161 164 179 160 138 133 139 145 147 149 153 165 183 215 228 221
247 261 290 317 333 331 322 322 318 318 78 103 129 135 142 145 151 159 161 157 147 146 146 144 146 151 146 134 149 157 150 154 176 160 166 160 127 120 123 142 146 157 166 174 171 198 235 280 353
252 270 284 296 321 308 304 304 324 16 66 102 122 139 149 156 160 162 165 162 151 153 151 149 142 134 129 138 148 149 151 160 163 158 170 136 115 110 110 113 125 131 123 110 107 110 51 18 4
251 258 260 264 268 272 289 298 328 56 105 113 125 138 148 161 165 168 170 164 156 152 149 135 136 136 129 126 149 155 150 153 148 151 155 135 128 127 118 105 110 117 135 124 122 63 39 13 359
276 275 278 280 277 266 264 276 263 139 125 125 133 145 157 161 166 175 176 167 165 159 150 139 142 137 133 134 141 134 136 131 136 141 142 130 126 124 124 129 126 118 112 104 127 118 93 333 315
274 276 279 285 265 251 257 268 206 148 143 142 152 158 156 159 171 184 184 171 166 159 149 143 145 143 144 148 158 143 138 141 135 130 129 126 127 133 141 137 133 122 130 143 140 177 203 220 237
278 270 266 269 258 242 248 251 173 162 154 165 168 160 157 157 177 182 175 158 155 153 146 151 155 147 144 144 150 136 138 133 130 131 126 123 131 144 147 131 130 139 152 160 159 180 213 344 301
267 263 259 240 228 243 255 240 178 161 160 171 169 157 156 154 163 159 156 147 149 150 147 145 141 145 143 143 146 132 131 137 137 136 134 144 152 155 137 125 123 164 159 152 136 86 24 346 337
272 271 270 266 225 251 274 256 166 164 172 183 166 155 159 154 150 143 140 139 142 142 141 139 138 141 144 146 145 144 147 142 129 124 129 143 150 138 131 128 136 154 116 94 78 89 222 269 276
285 294 306 304 283 274 287 272 197 166 174 184 165 156 156 155 146 141 141 139 139 137 137 138 141 146 149 149 158 159 154 145 134 135 137 145 139 126 123 115 139 116 100 99 101 63 281 256 295
283 290 295 296 287 281 285 269 197 169 176 187 165 161 158 152 147 147 149 146 145 143 143 148 150 153 156 156 157 155 149 147 135 124 136 145 140 150 151 135 144 108 113 117 89 59 327 323 32
277 287 292 295 291 280 272 259 175 168 170 170 162 156 156 159 155 157 160 159 155 155 160 158 160 158 161 160 156 146 138 136 127 131 147 145 141 140 110 125 124 130 156 136 144 143 20 351 331
278 287 294 297 294 291 285 274 174 173 183 178 164 163 164 158 154 159 168 168 165 164 161 155 156 154 160 169 162 159 160 159 152 152 145 146 143 143 137 129 124 124 106 121 153 96 357 325 317
281 291 293 299 312 312 299 283 196 174 192 179 169 171 168 160 158 166 169 169 166 164 157 153 151 153 162 175 161 167 165 155 145 137 140 149 147 155 146 131 126 137 111 103 79 76 12 354 1
277 282 286 306 340 304 274 270 218 185 186 173 169 170 165 162 160 165 165 163 162 161 156 154 152 153 162 171 162 180 167 142 137 142 150 164 155 167 155 141 134 142 117 117 114 117 109 58 30
260 275 284 294 236 253 259 259 205 178 164 160 164 166 163 163 163 165 163 162 163 163 159 157 158 159 165 171 168 174 159 140 143 158 166 180 166 159 147 137 140 137 129 137 134 160 106 91 51
251 255 266 285 277 254 258 259 173 129 130 141 151 158 160 163 164 167 167 166 168 167 163 159 159 163 169 172 170 165 160 164 167 179 168 186 166 142 142 138 154 153 161 158 132 198 176 148 182
253 256 268 274 285 288 225 293 118 132 143 144 156 165 169 168 166 169 171 171 172 169 166 166 164 167 172 171 165 165 175 187 162 156 177 165 131 140 146 152 161 165 167 155 151 225 171 141 205
249 264 276 285 295 298 346 340 275 205 185 166 167 169 170 170 169 170 172 174 172 170 169 169 168 170 172 170 174 175 177 171 153 167 182 146 139 125 148 160 167 169 169 178 192 227 188 174 210
244 245 257 275 281 291 286 243 231 238 199 183 173 168 167 171 171 170 171 173 172 171 172 171 171 172 175 177 184 173 171 171 169 176 166 152 147 146 162 172 177 179 183 188 194 239 203 193 225
258 259 254 260 272 285 293 237 192 202 196 193 179 166 164 168 170 170 171 171 173 174 173 174 175 176 179 180 180 177 172 173 178 181 172 168 167 172 180 185 189 196 193 192 197 226 225 207 216